Time,TemperatureF,DewpointF,PressureIn,WindDirection,WindDirectionDegrees,WindSpeedMPH,WindSpeedGustMPH,Humidity,HourlyPrecipIn,Conditions,Clouds,dailyrainin,SoftwareType,DateUTC
2013-09-16 00:13:00,79.0,67.0,30.01,SE,125,0.0,1.0,67,0.00,,,0.00,,2013-09-16 05:13:00,
2013-09-16 00:22:00,79.0,67.0,30.01,SE,146,0.0,1.0,66,0.00,,,0.00,,2013-09-16 05:22:00,
2013-09-16 00:53:00,78.0,67.0,30.02,ESE,108,0.0,2.0,69,0.00,,,0.00,,2013-09-16 05:53:00,
2013-09-16 01:12:00,77.0,66.0,30.02,ESE,109,0.0,1.0,69,0.00,,,0.00,,2013-09-16 06:12:00,
2013-09-16 01:22:00,78.0,67.0,30.02,ENE,74,0.0,3.0,68,0.00,,,0.00,,2013-09-16 06:22:00,
2013-09-16 01:52:00,78.0,65.0,30.01,SSE,165,0.0,3.0,65,0.00,,,0.00,,2013-09-16 06:52:00,
2013-09-16 02:11:00,78.0,65.0,30.01,ESE,122,0.0,1.0,65,0.00,,,0.00,,2013-09-16 07:11:00,
2013-09-16 02:22:00,78.0,66.0,30.01,ESE,116,0.0,1.0,66,0.00,,,0.00,,2013-09-16 07:22:00,
2013-09-16 02:43:00,77.0,66.0,30.01,ESE,109,0.0,1.0,68,0.00,,,0.00,,2013-09-16 07:43:00,
2013-09-16 02:52:00,77.0,66.0,30.01,SE,146,0.0,1.0,68,0.00,,,0.00,,2013-09-16 07:52:00,
2013-09-16 03:11:00,76.0,65.0,30.01,SE,124,0.0,2.0,70,0.00,,,0.00,,2013-09-16 08:11:00,
2013-09-16 03:22:00,76.0,65.0,30.01,SE,146,0.0,2.0,69,0.00,,,0.00,,2013-09-16 08:22:00,
2013-09-16 03:52:00,75.0,65.0,30.01,SE,142,0.0,0.0,72,0.00,,,0.00,,2013-09-16 08:52:00,
2013-09-16 04:12:00,74.0,65.0,30.01,SE,142,0.0,0.0,74,0.00,,,0.00,,2013-09-16 09:12:00,
2013-09-16 04:22:00,73.0,65.0,30.01,SE,142,0.0,0.0,75,0.00,,,0.00,,2013-09-16 09:22:00,
2013-09-16 04:43:00,73.0,65.0,30.01,SE,142,0.0,1.0,76,0.00,,,0.00,,2013-09-16 09:43:00,
2013-09-16 04:53:00,72.0,64.0,30.02,SE,142,0.0,0.0,77,0.00,,,0.00,,2013-09-16 09:53:00,
2013-09-16 05:12:00,72.0,65.0,30.01,SE,142,0.0,0.0,78,0.00,,,0.00,,2013-09-16 10:12:00,
2013-09-16 05:23:00,71.0,64.0,30.02,SE,142,0.0,0.0,78,0.00,,,0.00,,2013-09-16 10:23:00,
2013-09-16 05:42:00,72.0,64.0,30.03,SE,141,0.0,0.0,76,0.00,,,0.00,,2013-09-16 10:42:00,
2013-09-16 05:53:00,72.0,64.0,30.03,SE,141,0.0,0.0,77,0.00,,,0.00,,2013-09-16 10:53:00,
2013-09-16 06:12:00,71.0,63.0,30.03,SE,141,0.0,0.0,77,0.00,,,0.00,,2013-09-16 11:12:00,
2013-09-16 06:22:00,71.0,63.0,30.03,SE,141,0.0,0.0,77,0.00,,,0.00,,2013-09-16 11:22:00,
2013-09-16 06:42:00,70.0,63.0,30.03,SE,141,0.0,0.0,79,0.00,,,0.00,,2013-09-16 11:42:00,
2013-09-16 06:52:00,70.0,63.0,30.04,SE,141,0.0,0.0,79,0.00,,,0.00,,2013-09-16 11:52:00,
2013-09-16 07:12:00,70.0,64.0,30.04,SE,141,0.0,0.0,81,0.00,,,0.00,,2013-09-16 12:12:00,
2013-09-16 07:22:00,70.0,64.0,30.04,SE,141,0.0,0.0,81,0.00,,,0.00,,2013-09-16 12:22:00,
2013-09-16 07:52:00,71.0,63.0,30.06,SE,141,0.0,1.0,77,0.00,,,0.00,,2013-09-16 12:52:00,
2013-09-16 08:11:00,70.0,63.0,30.06,SE,141,0.0,0.0,78,0.00,,,0.00,,2013-09-16 13:11:00,
2013-09-16 08:22:00,71.0,64.0,30.07,SE,141,0.0,1.0,78,0.00,,,0.00,,2013-09-16 13:22:00,
2013-09-16 08:52:00,75.0,64.0,30.08,SE,141,0.0,1.0,69,0.00,,,0.00,,2013-09-16 13:52:00,
2013-09-16 09:11:00,77.0,64.0,30.08,ESE,117,0.0,1.0,65,0.00,,,0.00,,2013-09-16 14:11:00,
2013-09-16 09:22:00,79.0,63.0,30.08,SSE,152,0.0,3.0,59,0.00,,,0.00,,2013-09-16 14:22:00,
2013-09-16 09:52:00,80.0,62.0,30.10,NNE,17,1.0,4.0,55,0.00,,,0.00,,2013-09-16 14:52:00,
2013-09-16 10:12:00,79.0,64.0,30.09,NNE,24,3.0,8.0,60,0.00,,,0.00,,2013-09-16 15:12:00,
2013-09-16 10:22:00,79.0,64.0,30.10,NNE,30,1.0,7.0,60,0.00,,,0.00,,2013-09-16 15:22:00,
2013-09-16 10:43:00,80.0,63.0,30.10,East,91,1.0,7.0,56,0.00,,,0.00,,2013-09-16 15:43:00,
2013-09-16 10:53:00,80.0,62.0,30.10,NNE,33,2.0,6.0,55,0.00,,,0.00,,2013-09-16 15:53:00,
2013-09-16 11:12:00,82.0,63.0,30.10,North,3,2.0,6.0,53,0.00,,,0.00,,2013-09-16 16:12:00,
2013-09-16 11:23:00,83.0,64.0,30.10,NE,35,1.0,5.0,52,0.00,,,0.00,,2013-09-16 16:23:00,
2013-09-16 11:43:00,85.0,64.0,30.09,NNW,342,2.0,6.0,49,0.00,,,0.00,,2013-09-16 16:43:00,
2013-09-16 11:52:00,87.0,65.0,30.09,ENE,68,2.0,7.0,48,0.00,,,0.00,,2013-09-16 16:52:00,
2013-09-16 12:12:00,87.0,65.0,30.09,ENE,74,1.0,7.0,48,0.00,,,0.00,,2013-09-16 17:12:00,
2013-09-16 12:23:00,88.0,65.0,30.09,NE,37,3.0,6.0,46,0.00,,,0.00,,2013-09-16 17:23:00,
2013-09-16 12:42:00,88.0,65.0,30.09,NW,311,2.0,6.0,47,0.00,,,0.00,,2013-09-16 17:42:00,
2013-09-16 12:53:00,89.0,65.0,30.09,NW,314,1.0,5.0,45,0.00,,,0.00,,2013-09-16 17:53:00,
2013-09-16 13:12:00,91.0,65.0,30.08,East,81,0.0,4.0,43,0.00,,,0.00,,2013-09-16 18:12:00,
2013-09-16 13:22:00,92.0,66.0,30.07,SE,129,0.0,6.0,43,0.00,,,0.00,,2013-09-16 18:22:00,
2013-09-16 13:42:00,92.0,65.0,30.06,NE,35,3.0,6.0,41,0.00,,,0.00,,2013-09-16 18:42:00,
2013-09-16 13:52:00,93.0,65.0,30.06,WSW,246,1.0,7.0,40,0.00,,,0.00,,2013-09-16 18:52:00,
2013-09-16 14:11:00,93.0,65.0,30.05,SSW,200,1.0,9.0,40,0.00,,,0.00,,2013-09-16 19:11:00,
2013-09-16 14:22:00,93.0,64.0,30.04,East,82,3.0,9.0,39,0.00,,,0.00,,2013-09-16 19:22:00,
2013-09-16 14:53:00,93.0,63.0,30.03,NNE,29,2.0,10.0,37,0.00,,,0.00,,2013-09-16 19:53:00,
2013-09-16 15:11:00,93.0,64.0,30.02,ESE,115,2.0,9.0,38,0.00,,,0.00,,2013-09-16 20:11:00,
2013-09-16 15:22:00,93.0,63.0,30.02,SSW,198,2.0,10.0,37,0.00,,,0.00,,2013-09-16 20:22:00,
2013-09-16 15:43:00,93.0,63.0,30.01,East,86,1.0,9.0,37,0.00,,,0.00,,2013-09-16 20:43:00,
2013-09-16 15:52:00,92.0,62.0,30.01,ENE,77,3.0,8.0,37,0.00,,,0.00,,2013-09-16 20:52:00,
2013-09-16 16:11:00,92.0,62.0,30.00,East,95,2.0,6.0,37,0.00,,,0.00,,2013-09-16 21:11:00,
2013-09-16 16:22:00,91.0,62.0,29.99,NE,46,1.0,9.0,38,0.00,,,0.00,,2013-09-16 21:22:00,
2013-09-16 16:55:00,91.0,62.0,29.98,ESE,105,2.0,7.0,38,0.00,,,0.00,,2013-09-16 21:55:00,
2013-09-16 17:13:00,91.0,62.0,29.97,ENE,68,4.0,10.0,38,0.00,,,0.00,,2013-09-16 22:13:00,
2013-09-16 17:24:00,90.0,62.0,29.98,ESE,118,2.0,8.0,39,0.00,,,0.00,,2013-09-16 22:24:00,
2013-09-16 17:43:00,91.0,61.0,29.97,East,96,4.0,8.0,37,0.00,,,0.00,,2013-09-16 22:43:00,
2013-09-16 17:53:00,91.0,62.0,29.97,ENE,75,3.0,10.0,38,0.00,,,0.00,,2013-09-16 22:53:00,
2013-09-16 18:12:00,91.0,62.0,29.97,ESE,106,3.0,8.0,38,0.00,,,0.00,,2013-09-16 23:12:00,
2013-09-16 18:22:00,91.0,61.0,29.96,East,101,5.0,8.0,37,0.00,,,0.00,,2013-09-16 23:22:00,
2013-09-16 18:43:00,90.0,61.0,29.96,East,79,3.0,10.0,38,0.00,,,0.00,,2013-09-16 23:43:00,
2013-09-16 18:52:00,90.0,61.0,29.96,NE,34,3.0,9.0,38,0.00,,,0.00,,2013-09-16 23:52:00,
2013-09-16 19:11:00,90.0,61.0,29.97,East,79,3.0,7.0,38,0.00,,,0.00,,2013-09-17 00:11:00,
2013-09-16 19:22:00,89.0,61.0,29.97,SE,128,3.0,6.0,39,0.00,,,0.00,,2013-09-17 00:22:00,
2013-09-16 19:32:00,89.0,61.0,29.97,SE,128,3.0,6.0,39,0.00,,,0.00,,2013-09-17 00:32:00,
2013-09-16 19:42:00,89.0,61.0,29.97,SE,128,3.0,6.0,39,0.00,,,0.00,,2013-09-17 00:42:00,
2013-09-16 19:52:00,89.0,61.0,29.98,ENE,77,0.0,5.0,40,0.00,,,0.00,,2013-09-17 00:52:00,
2013-09-16 20:11:00,88.0,62.0,29.99,ENE,58,2.0,6.0,42,0.00,,,0.00,,2013-09-17 01:11:00,
2013-09-16 20:21:00,88.0,62.0,29.99,ENE,72,2.0,5.0,42,0.00,,,0.00,,2013-09-17 01:21:00,
2013-09-16 20:42:00,88.0,63.0,30.00,East,84,1.0,5.0,43,0.00,,,0.00,,2013-09-17 01:42:00,
2013-09-16 20:52:00,87.0,62.0,30.01,NE,42,1.0,7.0,44,0.00,,,0.00,,2013-09-17 01:52:00,
2013-09-16 21:12:00,87.0,62.0,30.00,ENE,71,2.0,5.0,44,0.00,,,0.00,,2013-09-17 02:12:00,
2013-09-16 21:22:00,86.0,62.0,30.01,ENE,68,1.0,5.0,45,0.00,,,0.00,,2013-09-17 02:22:00,
2013-09-16 21:42:00,86.0,62.0,30.01,ENE,68,1.0,6.0,45,0.00,,,0.00,,2013-09-17 02:42:00,
2013-09-16 21:52:00,85.0,62.0,30.01,ENE,73,0.0,3.0,46,0.00,,,0.00,,2013-09-17 02:52:00,
2013-09-16 22:12:00,85.0,62.0,30.02,NNE,27,1.0,5.0,46,0.00,,,0.00,,2013-09-17 03:12:00,
2013-09-16 22:23:00,85.0,62.0,30.03,East,90,2.0,7.0,47,0.00,,,0.00,,2013-09-17 03:23:00,
2013-09-16 22:45:00,84.0,62.0,30.03,ENE,72,1.0,5.0,48,0.00,,,0.00,,2013-09-17 03:45:00,
2013-09-16 22:54:00,84.0,62.0,30.03,ENE,77,1.0,7.0,48,0.00,,,0.00,,2013-09-17 03:54:00,
2013-09-16 23:14:00,83.0,62.0,30.03,East,79,2.0,6.0,49,0.00,,,0.00,,2013-09-17 04:14:00,
2013-09-16 23:24:00,83.0,62.0,30.03,East,89,1.0,5.0,49,0.00,,,0.00,,2013-09-17 04:24:00,
2013-09-16 23:53:00,82.0,63.0,30.03,East,98,2.0,6.0,52,0.00,,,0.00,,2013-09-17 04:53:00,